Pottsboro, TX

12:26 AM CDT on August 26, 2016 (GMT -0500)
Sherman - Denison

Weather History for KGYI - March, 2013

Change the Weather History Date:

Saturday, March 30, 2013

  Actual Average (KDFW) Record (KDFW)
Temperature  
Mean Temperature 64 °F 61 °F  
Max Temperature 76 °F 72 °F 95 °F (1946)
Min Temperature 53 °F 50 °F 29 °F (1987)
Degree Days  
Heating Degree Days 1 5  
Month to date heating degree days 256  
Since 1 July heating degree days 2188  
Cooling Degree Days 0 2  
Month to date cooling degree days 33  
Year to date cooling degree days 40  
Growing Degree Days 14 (Base 50)    
Moisture  
Dew Point 59 °F    
Average Humidity 81    
Maximum Humidity 99    
Minimum Humidity 64    
Precipitation  
Precipitation 0.46 in 0.10 in 2.09 in (2007)
Month to date precipitation 3.38  
Year to date precipitation 8.17  
Snow  
Snow 0.00 in 0.00 in 0.10 in (1926)
Month to date snowfall 0.2  
Since 1 July snowfall 1.6  
Snow Depth -    
Sea Level Pressure  
Sea Level Pressure 29.99 in    
Wind  
Wind Speed 9 mph (South)    
Max Wind Speed 20 mph    
Max Gust Speed 24 mph    
Visibility 10 miles    
Events Rain , Thunderstorm    
T = Trace of Precipitation, MM = Missing Value Source: NWS Daily Summary

Daily Weather History Graph

Daily Weather History Graph

Search for Another Location

Airport or City:

Trip Planner

Search our weather history database for the weather conditions in past years. The results will help you decide how hot, cold, wet, or windy it might be!

Date:

Astronomy

Mar. 30, 2013 Rise Set
Actual Time 7:16 AM CDT 7:46 PM CDT
Civil Twilight 6:51 AM CDT 8:11 PM CDT
Nautical Twilight 6:22 AM CDT 8:40 PM CDT
Astronomical Twilight 5:52 AM CDT 9:10 PM CDT
Moon 11:42 PM CDT (3/30) 9:23 AM CDT (3/30)
Length of Visible Light 13h 19m
Length of Day
12h 29m
Waning Gibbous, 86% of the Moon is Illuminated
Mar 30
Waning Gibbous
Apr 2
Last Quarter
Apr 10
New
Apr 18
First Quarter
Apr 25
Full

Hourly Weather History & Observations

Time (CDT) Temp. Dew Point Humidity Pressure Visibility Wind Dir Wind Speed Gust Speed Precip Events Conditions
12:15 AM 66.2 °F 55.8 °F 69% 30.06 in 10.0 mi SSE 10.4 mph - N/A Rain Light Rain
12:35 AM 63.9 °F 57.9 °F 81% 30.06 in 10.0 mi SSW 6.9 mph - N/A Rain Light Rain
12:55 AM 62.8 °F 59.0 °F 87% 30.07 in 10.0 mi SW 5.8 mph - 0.01 in Rain , Thunderstorm Rain
1:35 AM 61.3 °F 58.5 °F 90% 30.09 in 4.0 mi SSW 10.4 mph 19.6 mph 0.11 in Rain , Thunderstorm Thunderstorms and Rain
1:55 AM 59.5 °F 57.7 °F 94% 30.09 in 5.0 mi South 8.1 mph - 0.16 in Rain , Thunderstorm Light Thunderstorms and Rain
2:15 AM 59.2 °F 58.1 °F 96% 30.06 in 5.0 mi SSE 8.1 mph - 0.03 in Rain , Thunderstorm Rain
2:35 AM 59.0 °F 57.2 °F 94% 30.07 in 5.0 mi South 4.6 mph - 0.09 in Rain Rain
2:55 AM 59.0 °F 57.6 °F 95% 30.05 in 2.5 mi SE 4.6 mph - 0.19 in Rain , Thunderstorm Heavy Thunderstorms and Rain
3:15 AM 58.5 °F 57.4 °F 96% 30.03 in 5.0 mi South 5.8 mph - 0.05 in Rain , Thunderstorm Rain
3:35 AM 58.1 °F 57.2 °F 97% 30.01 in 7.0 mi SE 8.1 mph - 0.08 in Rain , Thunderstorm Light Thunderstorms and Rain
3:55 AM 58.5 °F 56.3 °F 93% 29.97 in 10.0 mi SSE 15.0 mph - 0.10 in Rain Light Rain
4:15 AM 58.1 °F 56.5 °F 94% 29.99 in 10.0 mi South 12.7 mph - N/A   Scattered Clouds
4:35 AM 57.7 °F 55.9 °F 94% 29.99 in 10.0 mi South 9.2 mph - N/A   Clear
4:55 AM 57.9 °F 56.8 °F 96% 30.02 in 10.0 mi SSW 15.0 mph 23.0 mph N/A   Scattered Clouds
5:15 AM 57.4 °F 56.7 °F 97% 30.02 in 10.0 mi SSW 11.5 mph - N/A   Mostly Cloudy
5:35 AM 57.0 °F 56.5 °F 98% 30.02 in 10.0 mi South 6.9 mph - N/A   Scattered Clouds
5:55 AM 55.9 °F 55.4 °F 98% 30.02 in 10.0 mi SSW 5.8 mph - N/A   Clear
6:15 AM 55.2 °F 54.7 °F 98% 30.02 in 10.0 mi South 4.6 mph - N/A   Clear
6:35 AM 53.8 °F 53.6 °F 99% 30.03 in 10.0 mi SSW 6.9 mph - N/A   Clear
6:55 AM 54.1 °F 54.0 °F 99% 30.04 in 10.0 mi SSW 6.9 mph - N/A   Clear
7:15 AM 55.0 °F 54.7 °F 99% 30.04 in 10.0 mi SSW 8.1 mph - N/A   Clear
7:35 AM 54.7 °F 54.0 °F 97% 30.03 in 10.0 mi SSE 6.9 mph - N/A   Clear
7:55 AM 56.8 °F 54.9 °F 93% 30.04 in 10.0 mi South 5.8 mph - N/A   Mostly Cloudy
8:15 AM 58.1 °F 55.4 °F 91% 30.05 in 10.0 mi ENE 4.6 mph - N/A   Overcast
8:35 AM 57.9 °F 56.3 °F 94% 30.05 in 10.0 mi East 4.6 mph - N/A   Mostly Cloudy
8:55 AM 59.2 °F 55.6 °F 88% 30.05 in 10.0 mi South 8.1 mph - N/A   Overcast
9:15 AM 59.9 °F 56.3 °F 88% 30.05 in 10.0 mi SE 3.5 mph - N/A   Mostly Cloudy
9:35 AM 62.8 °F 58.1 °F 85% 30.04 in 10.0 mi SSE 8.1 mph - N/A   Mostly Cloudy
9:55 AM 63.1 °F 58.8 °F 86% 30.04 in 10.0 mi South 9.2 mph - N/A   Overcast
10:15 AM 64.9 °F 59.9 °F 84% 30.04 in 10.0 mi South 12.7 mph - N/A   Overcast
10:35 AM 65.8 °F 60.6 °F 83% 30.03 in 10.0 mi South 11.5 mph - N/A   Mostly Cloudy
10:55 AM 66.7 °F 61.0 °F 82% 30.02 in 10.0 mi SSW 16.1 mph - N/A   Mostly Cloudy
11:15 AM 66.9 °F 60.8 °F 81% 30.02 in 10.0 mi South 13.8 mph 21.9 mph N/A   Mostly Cloudy
11:35 AM 66.7 °F 60.4 °F 80% 30.03 in 10.0 mi SSW 19.6 mph 23.0 mph N/A Thunderstorm Overcast
11:55 AM 66.6 °F 60.8 °F 82% 30.02 in 10.0 mi SSW 16.1 mph - N/A   Overcast
12:15 PM 67.5 °F 60.8 °F 79% 30.02 in 10.0 mi SW 15.0 mph 21.9 mph N/A   Mostly Cloudy
12:35 PM 67.3 °F 61.3 °F 81% 30.01 in 10.0 mi SSW 16.1 mph - N/A Thunderstorm Mostly Cloudy
12:55 PM 69.3 °F 61.7 °F 77% 30.01 in 10.0 mi SW 17.3 mph - N/A Thunderstorm Mostly Cloudy
1:15 PM 71.1 °F 62.4 °F 74% 30.00 in 10.0 mi SW 13.8 mph 23.0 mph N/A Thunderstorm Mostly Cloudy
1:35 PM 72.5 °F 61.7 °F 69% 29.98 in 10.0 mi SW 16.1 mph 24.2 mph N/A   Scattered Clouds
1:55 PM 73.8 °F 62.4 °F 68% 29.98 in 10.0 mi SSW 16.1 mph - N/A   Scattered Clouds
2:15 PM 75.0 °F 62.2 °F 64% 29.97 in 10.0 mi SSW 12.7 mph 20.7 mph N/A   Scattered Clouds
2:35 PM 74.5 °F 61.9 °F 65% 29.96 in 10.0 mi SSW 12.7 mph - N/A   Mostly Cloudy
2:55 PM 75.0 °F 62.1 °F 64% 29.95 in 10.0 mi SSW 13.8 mph - N/A   Mostly Cloudy
3:15 PM 75.4 °F 62.4 °F 64% 29.95 in 10.0 mi SSW 12.7 mph - N/A   Mostly Cloudy
3:35 PM 74.8 °F 62.1 °F 64% 29.94 in 10.0 mi SW 13.8 mph - N/A   Mostly Cloudy
3:55 PM 75.0 °F 61.9 °F 64% 29.93 in 10.0 mi SW 11.5 mph 16.1 mph N/A   Mostly Cloudy
4:15 PM 74.7 °F 62.1 °F 65% 29.93 in 10.0 mi SSW 12.7 mph - N/A   Mostly Cloudy
4:35 PM 74.1 °F 61.7 °F 65% 29.93 in 10.0 mi SSW 13.8 mph - N/A   Overcast
4:55 PM 73.9 °F 61.7 °F 65% 29.92 in 10.0 mi SSW 13.8 mph - N/A   Overcast
5:15 PM 73.0 °F 61.3 °F 67% 29.92 in 10.0 mi SSW 13.8 mph - N/A   Overcast
5:35 PM 73.4 °F 61.7 °F 67% 29.92 in 10.0 mi South 12.7 mph - N/A   Overcast
5:55 PM 73.2 °F 61.3 °F 66% 29.92 in 10.0 mi SSW 8.1 mph - N/A   Overcast
6:15 PM 73.4 °F 61.3 °F 66% 29.91 in 10.0 mi South 9.2 mph - N/A   Overcast
6:35 PM 73.4 °F 60.8 °F 65% 29.91 in 10.0 mi South 10.4 mph - N/A   Overcast
6:55 PM 72.5 °F 61.5 °F 68% 29.91 in 10.0 mi South 8.1 mph - N/A   Overcast
7:15 PM 72.0 °F 61.0 °F 68% 29.91 in 10.0 mi South 4.6 mph - N/A   Overcast
7:35 PM 71.6 °F 60.8 °F 69% 29.91 in 10.0 mi SSE 4.6 mph - N/A   Overcast
7:55 PM 71.4 °F 60.8 °F 69% 29.91 in 10.0 mi SE 3.5 mph - N/A   Overcast
8:15 PM 70.3 °F 60.8 °F 72% 29.91 in 10.0 mi Calm Calm - N/A   Mostly Cloudy
8:35 PM 69.4 °F 60.4 °F 73% 29.91 in 10.0 mi Calm Calm - N/A   Scattered Clouds
8:55 PM 68.5 °F 61.0 °F 77% 29.91 in 10.0 mi SSE 6.9 mph - N/A   Clear
9:15 PM 67.5 °F 61.7 °F 82% 29.92 in 10.0 mi South 8.1 mph - N/A   Clear
9:35 PM 67.1 °F 62.1 °F 84% 29.92 in 10.0 mi SSE 10.4 mph - N/A   Clear
9:55 PM 67.1 °F 62.1 °F 84% 29.92 in 10.0 mi South 11.5 mph - N/A   Clear
10:35 PM 67.6 °F 61.3 °F 80% 29.94 in 10.0 mi Calm Calm - N/A   Scattered Clouds
10:55 PM 67.8 °F 61.2 °F 79% 29.94 in 10.0 mi Calm Calm - N/A   Mostly Cloudy
11:15 PM 66.4 °F 60.8 °F 82% 29.93 in 10.0 mi SSE 5.8 mph - N/A   Scattered Clouds
11:35 PM 64.8 °F 60.3 °F 85% 29.92 in 10.0 mi South 4.6 mph - N/A   Clear
11:55 PM 64.6 °F 60.4 °F 86% 29.91 in 10.0 mi SE 4.6 mph - N/A   Clear